Location: Cz?stochówka
(50.8142°N, 19.0915°E)
Time: 14:48:52
(UTC+00:00)

Timation 2 Rocket - Pass Details

Date: 13 January 2026
Orbit: 907 x 1072 km, 70.0° (Epoch: 18 February)

Event Time Altitude Azimuth Distance (km) Brightness Sun altitude
Rises 05:49:41 0° 222° (SW) 3,785 6.9 -7.9°
Reaches altitude 10° 05:52:22 10° 226° (SW) 2,814 6.2 -7.5°
Maximum altitude 05:58:52 61° 307° (NW) 1,120 4.1 -6.6°
Drops below altitude 10° 06:05:08 10° 28° (NNE) 2,712 6.4 -5.7°
Sets 06:07:41 0° 32° (NNE) 3,638 7.1 -5.4°
